Total_Precipitation_Accumulation
1.88 2.18 2.16 2.26 1.92 1.91 1.98 1.91 1.71 1.63 1.48 1.33 1.25 1.25 1.30 1.24 1.31 1.48 1.46 1.45 1.56 1.83 2.24 2.45 2.42 2.42 2.36 2.26 2.12 1.98 1.82 1.70 1.57 1.41 1.21 1.06 1.00 0.97 0.97 0.99 0.97 0.91 0.88
2.37 2.71 2.78 2.67 2.37 2.36 2.57 2.61 2.40 2.19 1.99 1.89 1.67 1.64 1.65 1.65 1.73 1.76 1.68 1.64 1.54 1.59 1.99 2.38 2.65 2.83 2.79 2.52 2.26 2.11 2.07 1.96 1.80 1.64 1.49 1.34 1.23 1.18 1.13 1.10 1.08 1.02 0.93
2.88 2.92 3.13 3.05 2.88 2.83 2.83 2.80 2.98 2.97 2.54 2.25 2.09 2.05 2.08 2.03 2.06 2.08 2.11 2.09 1.85 1.72 1.82 2.09 2.36 2.56 2.67 2.65 2.51 2.35 2.34 2.14 1.95 1.79 1.67 1.56 1.48 1.40 1.33 1.23 1.20 1.19 1.12
3.22 3.23 3.15 3.12 3.07 3.08 3.32 3.38 3.32 3.28 3.09 2.78 2.58 2.34 2.24 2.30 2.13 2.09 2.09 2.17 2.21 1.91 1.72 1.70 1.85 2.03 2.31 2.62 2.79 2.81 2.67 2.44 2.20 2.02 1.93 1.83 1.69 1.54 1.39 1.30 1.27 1.28 1.24
3.61 3.65 3.62 3.67 3.54 3.58 3.56 3.41 3.68 3.60 3.44 3.13 2.66 2.42 2.21 2.23 2.12 1.87 1.90 2.01 2.08 1.96 1.87 1.69 1.73 1.87 2.16 2.49 2.75 2.94 2.92 2.74 2.55 2.38 2.28 2.16 1.99 1.80 1.60 1.47 1.41 1.40 1.40
4.35 4.31 4.20 4.18 4.09 4.00 3.87 3.79 3.79 3.57 3.41 3.16 2.62 2.38 2.15 1.92 1.86 1.84 1.67 1.71 1.78 1.68 1.75 1.76 1.83 1.73 1.90 2.15 2.41 2.65 2.75 2.81 2.74 2.52 2.36 2.33 2.23 2.03 1.85 1.72 1.63 1.56 1.55
4.76 4.60 4.48 4.50 4.32 4.15 3.95 3.82 3.74 3.62 3.31 3.10 2.97 2.60 2.10 1.80 1.67 1.57 1.55 1.55 1.49 1.52 1.71 1.72 1.72 1.68 1.65 1.82 1.93 2.11 2.40 2.61 2.79 2.77 2.65 2.55 2.34 2.10 1.98 1.92 1.88 1.81 1.71
5.09 4.88 4.85 4.72 4.46 4.27 4.04 3.85 3.74 3.63 3.33 3.19 3.16 3.07 2.44 1.96 1.55 1.23 1.29 1.32 1.33 1.40 1.46 1.44 1.43 1.49 1.54 1.64 1.62 1.80 2.07 2.31 2.56 2.71 2.73 2.52 2.37 2.19 2.10 2.07 2.06 2.03 1.96
5.46 5.27 5.16 4.87 4.61 4.32 4.00 3.74 3.58 3.48 3.37 3.27 3.14 3.22 2.78 2.22 1.76 1.40 1.20 1.13 1.21 1.35 1.37 1.37 1.32 1.29 1.37 1.53 1.62 1.65 1.72 1.76 2.01 2.29 2.42 2.46 2.42 2.29 2.20 2.17 2.14 2.14 2.17
4.87 4.74 4.68 4.48 4.23 3.93 3.70 3.44 3.30 3.20 3.29 3.14 3.04 2.89 2.69 2.39 2.12 1.76 1.42 1.23 1.20 1.24 1.30 1.30 1.29 1.31 1.34 1.45 1.56 1.57 1.53 1.45 1.57 1.78 1.93 1.99 2.06 2.06 2.07 2.07 2.05 2.08 2.15
4.15 3.90 3.83 3.73 3.55 3.33 3.12 3.03 3.00 2.90 2.86 2.75 2.63 2.59 2.57 2.51 2.24 1.94 1.62 1.36 1.28 1.25 1.27 1.31 1.41 1.42 1.43 1.46 1.45 1.43 1.40 1.30 1.32 1.45 1.56 1.59 1.67 1.79 1.89 1.88 1.88 1.94 2.07
3.49 3.12 2.96 2.87 2.74 2.61 2.57 2.56 2.57 2.50 2.46 2.44 2.41 2.31 2.24 2.26 2.14 2.02 1.74 1.50 1.46 1.35 1.29 1.27 1.27 1.34 1.41 1.44 1.44 1.50 1.27 1.15 1.13 1.16 1.28 1.39 1.47 1.56 1.65 1.75 1.86 1.94 2.04
2.86 2.55 2.38 2.32 2.23 2.17 2.15 2.21 2.24 2.17 2.11 2.13 2.14 2.09 2.04 2.00 1.95 1.94 1.97 1.81 1.53 1.29 1.22 1.23 1.21 1.20 1.22 1.34 1.45 1.48 1.19 1.08 1.07 1.12 1.16 1.20 1.28 1.36 1.43 1.48 1.60 1.74 1.80
2.32 2.13 1.99 1.90 1.82 1.73 1.71 1.79 1.87 1.90 1.85 1.90 1.92 1.98 1.94 1.86 1.82 1.77 1.82 1.90 1.83 1.60 1.41 1.32 1.30 1.30 1.32 1.34 1.47 1.47 1.22 1.26 1.17 1.18 1.17 1.12 1.14 1.15 1.16 1.16 1.19 1.29 1.40
1.74 1.62 1.54 1.48 1.42 1.39 1.43 1.52 1.59 1.55 1.54 1.61 1.70 1.79 1.81 1.83 1.84 1.78 1.80 1.86 1.95 1.90 1.73 1.55 1.49 1.45 1.48 1.50 1.62 1.28 1.29 1.45 1.30 1.20 1.13 1.07 1.06 1.00 0.95 0.93 0.90 0.89 0.91
1.43 1.33 1.26 1.23 1.20 1.18 1.20 1.21 1.28 1.30 1.26 1.30 1.43 1.56 1.65 1.71 1.83 1.86 1.92 1.94 1.95 1.96 1.90 1.66 1.59 1.57 1.52 1.46 1.69 1.43 1.40 1.45 1.26 1.12 1.01 0.94 0.90 0.85 0.82 0.82 0.84 0.83 0.82
1.48 1.33 1.20 1.20 1.17 1.12 1.07 1.07 1.08 1.10 1.14 1.18 1.22 1.33 1.42 1.47 1.59 1.67 1.72 1.74 1.82 1.87 1.87 1.73 1.63 1.61 1.57 1.55 1.59 1.44 1.34 1.27 1.19 1.11 0.96 0.88 0.84 0.80 0.78 0.79 0.81 0.80 0.80
1.17 1.09 1.03 1.04 1.02 0.97 0.96 0.93 0.87 0.87 0.90 0.95 1.01 1.09 1.16 1.20 1.30 1.32 1.41 1.48 1.52 1.59 1.66 1.74 1.80 1.73 1.63 1.61 1.53 1.38 1.19 1.05 1.02 1.03 0.92 0.87 0.86 0.87 0.87 0.87 0.85 0.82 0.77
1.08 1.06 1.01 0.97 0.94 0.88 0.84 0.80 0.77 0.74 0.71 0.74 0.81 0.88 0.95 0.99 1.03 1.03 1.09 1.14 1.23 1.33 1.51 1.60 1.65 1.68 1.64 1.65 1.65 1.40 1.23 1.20 0.94 0.91 0.85 0.84 0.84 0.83 0.82 0.80 0.77 0.74 0.71
1.02 1.06 0.99 0.92 0.82 0.77 0.72 0.73 0.76 0.74 0.70 0.67 0.69 0.73 0.76 0.77 0.76 0.79 0.80 0.88 1.00 1.21 1.38 1.47 1.43 1.44 1.50 1.46 1.54 1.47 1.36 1.26 1.07 0.80 0.75 0.68 0.69 0.70 0.69 0.64 0.62 0.60 0.59
0.89 0.91 0.87 0.83 0.77 0.69 0.64 0.66 0.66 0.66 0.66 0.61 0.59 0.58 0.56 0.59 0.61 0.61 0.60 0.71 0.87 1.09 1.21 1.32 1.35 1.28 1.27 1.29 1.32 1.27 1.28 1.26 1.14 0.93 0.84 0.69 0.63 0.64 0.67 0.66 0.63 0.56 0.50
0.89 0.87 0.85 0.78 0.71 0.60 0.60 0.58 0.52 0.54 0.58 0.59 0.56 0.49 0.44 0.43 0.45 0.47 0.50 0.58 0.70 0.83 0.95 1.08 1.15 1.16 1.16 1.15 1.21 1.22 1.22 1.24 1.22 1.04 0.97 0.86 0.70 0.77 0.75 0.68 0.63 0.55 0.52
0.89 0.80 0.75 0.68 0.65 0.61 0.54 0.46 0.47 0.52 0.58 0.61 0.61 0.59 0.48 0.38 0.45 0.49 0.50 0.54 0.59 0.62 0.72 0.89 1.01 1.02 1.04 1.11 1.23 1.23 1.26 1.25 1.23 1.08 1.07 1.04 0.88 0.87 0.70 0.59 0.61 0.54 0.51
0.87 0.82 0.76 0.69 0.63 0.58 0.56 0.51 0.50 0.50 0.59 0.61 0.60 0.59 0.61 0.57 0.50 0.49 0.48 0.53 0.59 0.66 0.71 0.77 0.92 0.95 0.87 0.95 1.12 1.16 1.15 1.12 1.08 1.04 1.07 1.11 0.90 0.81 0.63 0.69 0.65 0.53 0.47
0.84 0.76 0.72 0.68 0.66 0.60 0.54 0.49 0.50 0.53 0.57 0.52 0.45 0.46 0.47 0.50 0.48 0.48 0.51 0.58 0.62 0.67 0.61 0.67 0.72 0.78 0.85 0.88 0.90 0.96 1.07 1.20 1.17 1.05 1.03 1.11 0.98 0.84 0.71 0.76 0.69 0.58 0.54
0.77 0.67 0.66 0.68 0.67 0.63 0.53 0.45 0.46 0.46 0.49 0.44 0.42 0.42 0.40 0.37 0.38 0.38 0.45 0.61 0.72 0.69 0.63 0.66 0.80 0.96 1.02 1.00 0.90 0.94 1.07 1.17 1.17 1.17 1.03 1.05 1.06 0.94 0.86 0.71 0.71 0.72 0.73